2017-008Y

Last updated on Wed Mar 01 2017 00:15:03 GMT+0000 (Coordinated Universal Time)

1 41970U 17008Y 17059.75277913 .00004946 00000-0 22259-3 0 9996 2 41970 97.5091 121.3553 0008287 204.3764 155.7085 15.21533457 1878
UTC large
Height (km)
Speed (km/s)
/
Latitude / Longitude
Inclination (degrees)
Orbital Period (minutes)
Azimuth
Elevation
Range (km)
Doppler Factor

Next 0 passes for location: London (51.5072 / 0.1276)

Sorry there are no passes over London.